Flag for U.S.A. Weather past 2 weeks in Irving, Texas, U.S.A.

40 °F

Rain. Fog.

Feels Like: 33 °F
Forecast: 40 / 42 °F
Wind: 10 mph from North

Location: Dallas / Fort Worth International Airport

Current Time: Nov 27, 2015 at 9:22:58 PM

Latest Report: Nov 27, 2015 at 8:53 PM

Visibility: 4 mi

Pressure: 30.25 "Hg

Humidity: 93%

Dew point: 38 °F

Location of IrvingLocation

Historic Weather in Irving — Graph


Irving temperature yesterday

Maximum temperature yesterday: 71 °F (at 11:53 AM)
Minimum temperature yesterday: 67 °F (at 2:53 AM)
Average temperature yesterday: 69 °F

Past Weeks' High & Low Weather Summary

High76 °F (Nov 17, 1:53 AM)94% (Nov 16, 11:53 AM)30.36 "Hg (Nov 16, 11:53 AM)
Low31 °F (Nov 22, 6:53 AM)21% (Nov 13, 12:53 PM)29.46 "Hg (Nov 17, 2:53 AM)
Average57 °F64%30.07 "Hg
* Reported Nov 12 7:53 PM — Nov 27 7:53 PM, Irving, Weather by CustomWeather, © 2015

Note: Actual official high and low records may vary slightly from our data, if they occured in-between our weather recording intervals... More about our weather records


Irving weather history for previous 24 hours

Time TempWeatherWind HumidityBarometerVisibility
7:53 PM
Fri, Nov 27
40 °FHeavy rain. Fog.13 mph93%30.25 "Hg5 mi
6:53 PM40 °FThunderstorms. Fog.18 mph89%30.23 "Hg6 mi
5:53 PM41 °FLight rain. Overcast.18 mph86%30.22 "Hg9 mi
4:53 PM41 °FHeavy rain. Fog.16 mph86%30.21 "Hg4 mi
3:53 PM41 °FLight rain. Mostly cloudy.15 mph89%30.22 "Hg10 mi
2:53 PM41 °FLight rain. Fog.18 mph89%30.20 "Hg4 mi
1:53 PM43 °FDrizzle. Fog.17 mph89%30.20 "Hg5 mi
12:53 PM44 °FLight rain. Fog.16 mph85%30.22 "Hg4 mi
11:53 AM43 °FRain. Fog.18 mph89%30.22 "Hg4 mi
11:04 AM44 °FLight rain. Cloudy.16 mph89%30.24 "Hg10 mi
9:53 AM44 °FLow clouds.20 mph89%30.23 "Hg8 mi
8:53 AM45 °FMostly cloudy.20 mph90%30.19 "Hg8 mi
7:53 AM46 °FLight rain. Fog.15 mph93%30.19 "Hg6 mi
6:53 AM48 °FLight rain. Mostly cloudy.16 mph93%30.15 "Hg8 mi
5:53 AM49 °FHeavy rain. Fog.15 mph90%30.10 "Hg2 mi
4:53 AM50 °FRain. Fog.16 mph93%30.09 "Hg4 mi
3:53 AM56 °FRain. Fog.21 mph93%30.06 "Hg3 mi
2:53 AM70 °FMostly cloudy.13 mph93%30.03 "Hg10 mi
2:04 AM69 °FLight rain. Low clouds.7 mph93%30.06 "Hg7 mi
12:53 AM69 °FStrong thunderstorms. Fog.7 mph93%30.04 "Hg1 mi
12:03 AM69 °FStrong thunderstorms. Fog.13 mph93%30.07 "Hg2 mi
11:02 PM
Thu, Nov 26
70 °FStrong thunderstorms. Fog.9 mph90%30.10 "Hg1 mi
10:53 PM70 °FThunderstorms. Fog.8 mph90%30.08 "Hg6 mi
9:53 PM70 °FThunderstorms. Overcast.8 mph90%30.07 "Hg7 mi
Weather by CustomWeather, © 2015

See weather overviewHow to use our weather pages